Location: Bailen
(14.1842°N, 120.7958°E)
Time: 17:05:47
(UTC+00:00)

GMS 1 Rocket B - Pass Details

Date: 12 January 2026
Orbit: 529 x 1797 km, 29.1° (Epoch: 16 February)

Event Time Altitude Azimuth Distance (km) Brightness Sun altitude
Exits shadow 21:42:48 14° 296° (WNW) 1,578 6.0 -10.3°
Maximum altitude 21:46:17 85° 209° (SSW) 604 4.5 -9.5°
Drops below altitude 10° 21:51:14 10° 119° (ESE) 2,194 9.0 -8.4°
Sets 21:54:01 0° 119° (ESE) 3,299 10.5 -7.7°
